[[{"header":{"parameterUnit":"m.s-1","parameterCategory":2,"la1":30.2991,"la2":30.254,"lo1":-89.0895,"lo2":-89.0444,"dy":0.0017,"dx":0.0017,"nx":28,"ny":28,"refTime":"2026-01-30T03:00:00:Z","depth":"0","parameterNumber":2,"parameterNumberName":"U-component_of_CURRENTS"},"data":[0,0,0,0,0,0,0,0,0,0,0,0,0,0,0,0,0,0,0,0,0,0,0,0,0,0,0,0,0,0,0,0,0,0,0,0,0,0,0,0,0,0,0,0,0,0,0,0,0,0,0,0,0,0,0,0,0,0,-0.2684,-0.2684,0,-0.2715,-0.2715,-0.2715,-0.2685,-0.2684,-0.2683,-0.2682,-0.2676,-0.2677,-0.2678,0,0,0,0,0,0,0,0,0,0,0,0,0,-0.262,-0.2621,-0.2684,-0.2684,-0.2685,-0.2715,-0.2715,-0.2715,-0.2685,-0.2684,-0.2683,-0.2682,-0.2676,-0.2677,-0.2678,0,0,0,0,0,0,0,0,0,0,0,0,0,-0.2647,-0.2621,-0.2683,-0.2675,-0.2675,-0.2714,-0.2715,-0.2715,-0.2686,-0.2684,-0.2683,-0.2681,-0.2676,-0.2677,-0.2678,-0.2713,0,0,-0.2681,-0.2682,0,0,0,0,0,0,0,0,-0.2645,-0.2649,-0.2676,-0.2676,-0.2676,-0.2697,-0.269,-0.2713,-0.2686,-0.2679,-0.2682,-0.2681,-0.2682,-0.2683,-0.2689,-0.2713,-0.2713,-0.2681,-0.2682,-0.2682,-0.2683,0,0,0,0,0,0,0,-0.2643,-0.2647,-0.2693,-0.2677,-0.2677,-0.2678,-0.2679,-0.2694,-0.2686,-0.268,-0.2678,-0.2686,-0.2681,-0.2688,-0.2688,-0.2713,-0.2681,-0.2682,-0.2683,-0.2683,-0.2764,-0.2766,0,0,0,0,0,0,-0.2645,-0.2646,-0.2692,-0.2695,-0.2659,-0.268,-0.2682,-0.2689,-0.2687,-0.2686,-0.2687,-0.2684,-0.2687,-0.2687,-0.2688,-0.2716,-0.2682,-0.2683,-0.2684,-0.2763,-0.2765,-0.2766,0,0,0,0,0,0,-0.2643,-0.2649,-0.2691,-0.2672,-0.2678,-0.2683,-0.2692,-0.2691,-0.2691,-0.2693,-0.269,-0.2687,-0.2686,-0.2687,-0.2702,-0.2716,-0.2684,-0.2685,-0.2761,-0.2764,-0.2766,-0.278,0,0,0,0,0,0,-0.2641,-0.2648,-0.2649,-0.2673,-0.2679,-0.2715,-0.2693,-0.2693,-0.27,-0.2696,-0.2693,-0.2691,-0.2685,-0.2701,-0.2703,-0.2716,-0.2686,-0.2759,-0.2762,-0.2765,-0.2778,-0.2783,-0.2787,0,0,0,0,0,-0.2639,-0.2652,-0.2649,-0.2655,-0.2683,-0.2716,-0.2719,-0.2716,-0.2701,-0.2708,-0.2706,-0.2691,-0.272,-0.2703,-0.2705,-0.2719,-0.2758,-0.2761,-0.2765,-0.2776,-0.2782,-0.2787,0,0,0,0,0,0,-0.2624,-0.2651,-0.2648,-0.2668,-0.2689,-0.2711,-0.2718,-0.2719,-0.2724,-0.2716,-0.2709,-0.2708,-0.2727,-0.273,-0.271,-0.2754,-0.2738,-0.2742,-0.2746,-0.2751,-0.2756,-0.2753,-0.2687,0,0,0,0,0,-0.2624,-0.2636,-0.2665,-0.2677,-0.269,-0.2703,-0.2714,-0.2717,-0.2728,-0.2728,-0.2727,-0.2732,-0.2748,-0.2752,-0.2764,-0.2789,-0.2778,-0.2803,-0.2807,-0.2811,-0.2813,-0.2811,-0.2814,-0.2777,-0.2777,-0.2777,0,0,-0.2621,-0.2637,-0.2643,-0.2674,-0.2687,-0.2715,-0.2705,-0.2726,-0.2744,-0.2729,-0.2744,-0.2747,-0.2759,-0.2783,-0.2792,-0.2782,-0.2817,-0.2815,-0.2818,-0.2818,-0.2815,-0.2818,-0.2821,-0.278,-0.2779,-0.2779,0,0,-0.2627,-0.2637,-0.2651,-0.2674,-0.2702,-0.2719,-0.2726,-0.2751,-0.2754,-0.278,-0.2772,-0.2786,-0.2807,-0.2817,-0.2827,-0.2869,-0.284,-0.2873,-0.289,-0.2888,-0.289,-0.2892,-0.2877,-0.2878,-0.2874,-0.2874,-0.2874,0,-0.2622,-0.2641,-0.2661,-0.2686,-0.2702,-0.2722,-0.2745,-0.2766,-0.279,-0.2795,-0.2786,-0.2818,-0.2827,-0.2856,-0.2871,-0.2878,-0.2863,-0.2863,-0.2891,-0.2893,-0.2894,-0.2878,-0.2879,-0.2875,-0.2875,-0.2875,-0.2875,0,-0.2641,-0.2659,-0.2672,-0.2707,-0.2732,-0.2755,-0.2791,-0.2809,-0.2815,-0.2829,-0.2851,-0.2864,-0.2878,-0.2891,-0.2894,-0.2917,-0.2897,-0.2893,-0.2869,-0.2898,-0.2881,-0.288,-0.2877,-0.2876,-0.2876,-0.2876,0,0,-0.2618,-0.2674,-0.2675,-0.2689,-0.2741,-0.2761,-0.2803,-0.2838,-0.2853,-0.2874,-0.2888,-0.2924,-0.2917,-0.2929,-0.2932,-0.2937,-0.294,-0.292,-0.2919,-0.2891,-0.2918,-0.2831,-0.2822,-0.293,-0.293,-0.293,-0.2898,0,-0.2621,-0.2658,-0.2691,-0.2726,-0.2747,-0.2786,-0.282,-0.2855,-0.2879,-0.2901,-0.2917,-0.2934,-0.2936,-0.2937,-0.2946,-0.2946,-0.2941,-0.2948,-0.2907,-0.2906,-0.2813,-0.282,-0.2697,-0.2651,-0.2898,-0.2898,-0.2898,0,-0.2619,-0.2644,-0.2674,-0.2724,-0.2737,-0.2764,-0.2806,-0.2842,-0.289,-0.2906,-0.2927,-0.2939,-0.2964,-0.2954,-0.2958,-0.2957,-0.2939,-0.2933,-0.2931,-0.2844,-0.2818,-0.2665,-0.2641,-0.261,-0.2897,-0.2897,-0.2897,0,-0.2569,-0.2627,-0.2643,-0.2663,-0.273,-0.2743,-0.2776,-0.283,-0.2855,-0.2902,-0.2917,-0.2946,-0.2951,-0.2948,-0.2945,-0.2947,-0.2934,-0.2934,-0.2836,-0.2829,-0.2714,-0.2696,-0.2641,-0.2922,-0.2922,-0.2923,-0.2923,0,-0.2549,-0.256,-0.2617,-0.2626,-0.2642,-0.2703,-0.2725,-0.2767,-0.2823,-0.2842,-0.2903,-0.2914,-0.2947,-0.2949,-0.2942,-0.2882,-0.2927,-0.2833,-0.2814,-0.2715,-0.2699,-0.2658,-0.2679,-0.2921,-0.2922,-0.2922,-0.2922,0,-0.2481,-0.2527,-0.2543,-0.2601,-0.2617,-0.2621,-0.2683,-0.2696,-0.2769,-0.2795,-0.2808,-0.2883,-0.2884,-0.2904,-0.2899,-0.2859,-0.2764,-0.2792,-0.2668,-0.2633,-0.2494,-0.2521,-0.2443,-0.2366,-0.267,-0.2668,-0.2666,0,-0.2446,-0.2448,-0.2497,-0.2495,-0.2514,-0.2539,-0.2551,-0.2642,-0.2661,-0.2762,-0.2758,-0.28,-0.2795,-0.2767,-0.2723,-0.2677,-0.2669,-0.2518,-0.2501,-0.246,-0.2477,-0.2492,-0.2435,-0.2358,-0.2354,-0.235,-0.2347,0,-0.2364,-0.2381,-0.2392,-0.239,-0.2396,-0.2415,-0.2444,-0.246,-0.256,-0.2592,-0.2626,-0.2641,-0.2642,-0.2553,-0.2506,-0.2458,-0.2432,-0.2441,-0.2433,-0.2251,-0.2231,-0.2154,-0.2412,-0.2316,-0.2319,-0.2321,-0.2323,-0.2324,-0.2283,-0.2265,-0.2273,-0.2259,-0.227,-0.2263,-0.2228,-0.2286,-0.2304,-0.2337,-0.2439,-0.2448,-0.2424,-0.2345,-0.2277,-0.2129,-0.2208,-0.2058,-0.2101,-0.2126,-0.2024,-0.2202,-0.2064,-0.2066,-0.2067,-0.2068,-0.2069,0,-0.2164,-0.2153,-0.2136,-0.2114,-0.2069,-0.2122,-0.2124,-0.2075,-0.2044,-0.2151,-0.2168,-0.223,-0.2109,-0.2089,-0.1962,-0.1837,-0.1778,-0.178,-0.1784,-0.1745,-0.1918,-0.1875,-0.1646,-0.1646,-0.1646,-0.1646,-0.1646,-0.1646,-0.21,-0.204,-0.203,-0.1913,-0.1889,-0.1781,-0.1748,-0.1718,-0.1755,-0.1795,-0.1896,-0.203,-0.2052,-0.204,-0.1835,-0.1706,-0.1643,-0.1569,-0.1607,-0.1753,-0.1783,-0.1812,-0.1775,-0.1529,-0.1529,-0.1349,-0.1348,-0.1347]},{"header":{"parameterUnit":"m.s-1","parameterCategory":2,"la1":30.2991,"la2":30.254,"lo1":-89.0895,"lo2":-89.0444,"dy":0.0017,"dx":0.0017,"nx":28,"ny":28,"refTime":"2026-01-30T03:00:00:Z","depth":"0","parameterNumber":3,"parameterNumberName":"V-component_of_CURRENTS"},"data":[0,0,0,0,0,0,0,0,0,0,0,0,0,0,0,0,0,0,0,0,0,0,0,0,0,0,0,0,0,0,0,0,0,0,0,0,0,0,0,0,0,0,0,0,0,0,0,0,0,0,0,0,0,0,0,0,0,0,-0.0403,-0.0402,0,-0.0325,-0.0324,-0.0323,-0.0265,-0.0264,-0.0264,-0.0263,-0.0132,-0.0129,-0.0126,0,0,0,0,0,0,0,0,0,0,0,0,0,-0.0444,-0.0444,-0.0403,-0.0402,-0.0401,-0.0326,-0.0324,-0.0323,-0.0265,-0.0264,-0.0264,-0.0263,-0.0133,-0.0129,-0.0126,0,0,0,0,0,0,0,0,0,0,0,0,0,-0.0402,-0.0444,-0.0403,-0.0364,-0.036,-0.0326,-0.0324,-0.0323,-0.0265,-0.0264,-0.0263,-0.0263,-0.0134,-0.013,-0.0125,-0.0109,0,0,-0.0111,-0.0109,0,0,0,0,0,0,0,0,-0.0404,-0.04,-0.037,-0.0367,-0.0362,-0.0305,-0.0291,-0.0249,-0.0265,-0.0299,-0.0263,-0.0263,-0.0186,-0.0177,-0.0163,-0.0103,-0.0097,-0.0111,-0.0108,-0.0106,-0.0104,0,0,0,0,0,0,0,-0.0407,-0.0403,-0.0371,-0.037,-0.0364,-0.0331,-0.0325,-0.0283,-0.0245,-0.0296,-0.0292,-0.0286,-0.0183,-0.0168,-0.0159,-0.0095,-0.0111,-0.0107,-0.0104,-0.0102,-0.002,-0.0021,0,0,0,0,0,0,-0.0423,-0.0406,-0.0373,-0.0369,-0.0383,-0.0331,-0.0324,-0.0323,-0.0247,-0.0235,-0.0287,-0.0284,-0.0176,-0.0165,-0.0154,-0.014,-0.0106,-0.0101,-0.0099,-0.002,-0.002,-0.0021,0,0,0,0,0,0,-0.0425,-0.0421,-0.0376,-0.0386,-0.0378,-0.0332,-0.0331,-0.0322,-0.0305,-0.024,-0.0227,-0.028,-0.0175,-0.0161,-0.0122,-0.0134,-0.0099,-0.0095,-0.0019,-0.002,-0.0021,-0.0105,0,0,0,0,0,0,-0.0426,-0.0422,-0.0427,-0.0388,-0.0378,-0.0364,-0.0331,-0.0321,-0.0303,-0.0298,-0.023,-0.0217,-0.0173,-0.0129,-0.0117,-0.0127,-0.0091,-0.0018,-0.0019,-0.002,-0.0101,-0.0108,-0.0114,0,0,0,0,0,-0.0428,-0.044,-0.0427,-0.0423,-0.0386,-0.0365,-0.0357,-0.0321,-0.0304,-0.0302,-0.0256,-0.0219,-0.0128,-0.0126,-0.0112,-0.012,-0.0018,-0.0019,-0.002,-0.0098,-0.0107,-0.0114,0,0,0,0,0,0,-0.0456,-0.0434,-0.0419,-0.0422,-0.0399,-0.0356,-0.0351,-0.0327,-0.029,-0.0285,-0.0222,-0.0206,-0.0178,-0.0139,-0.0138,-0.0101,-0.0069,-0.0068,-0.0133,-0.014,-0.0147,-0.0152,-0.0088,0,0,0,0,0,-0.0467,-0.0471,-0.044,-0.0442,-0.0434,-0.0394,-0.0381,-0.0359,-0.0322,-0.0305,-0.0257,-0.021,-0.0173,-0.0149,-0.0109,-0.0086,-0.0044,-0.0084,-0.009,-0.0096,-0.0091,-0.0046,-0.0048,-0.0026,-0.0026,-0.0026,0,0,-0.0477,-0.0466,-0.0467,-0.0448,-0.0426,-0.0426,-0.0384,-0.0372,-0.0367,-0.0296,-0.0273,-0.023,-0.0172,-0.0149,-0.0133,-0.0116,-0.0083,-0.0098,-0.0104,-0.0095,-0.0047,-0.0049,-0.0051,-0.0027,-0.0026,-0.0026,0,0,-0.0507,-0.0492,-0.0508,-0.0497,-0.0475,-0.045,-0.0452,-0.0414,-0.0392,-0.0367,-0.0319,-0.0284,-0.0223,-0.0187,-0.0161,-0.018,-0.0121,-0.0171,-0.0205,-0.0162,-0.0163,-0.0164,-0.0125,-0.0121,-0.0174,-0.0174,-0.0174,0,-0.0521,-0.0537,-0.0507,-0.0521,-0.0518,-0.0468,-0.0484,-0.0456,-0.041,-0.0393,-0.0371,-0.0287,-0.0242,-0.021,-0.0217,-0.0195,-0.0159,-0.0181,-0.0171,-0.017,-0.0169,-0.0129,-0.0124,-0.0178,-0.0178,-0.0177,-0.0177,0,-0.0563,-0.0576,-0.0584,-0.0586,-0.0578,-0.0582,-0.0547,-0.053,-0.0497,-0.0462,-0.0421,-0.0357,-0.0307,-0.0293,-0.0257,-0.0234,-0.0209,-0.0187,-0.0152,-0.0177,-0.0133,-0.0126,-0.0184,-0.0183,-0.0181,-0.018,0,0,-0.0596,-0.0613,-0.0616,-0.0633,-0.0615,-0.0615,-0.0607,-0.0582,-0.0575,-0.0519,-0.0501,-0.0437,-0.0394,-0.0361,-0.0313,-0.0273,-0.0244,-0.0232,-0.0228,-0.0197,-0.0148,-0.0111,-0.01,-0.0219,-0.0218,-0.0217,-0.0124,0,-0.0638,-0.0688,-0.0678,-0.0716,-0.0737,-0.0697,-0.0694,-0.0664,-0.0621,-0.0589,-0.0514,-0.0475,-0.0422,-0.04,-0.0353,-0.0267,-0.0227,-0.0271,-0.0125,-0.012,-0.0087,-0.0091,-0.0081,0.0005,-0.0117,-0.0116,-0.0115,0,-0.0686,-0.0714,-0.0765,-0.0788,-0.0792,-0.08,-0.0786,-0.0776,-0.0713,-0.068,-0.062,-0.0553,-0.0482,-0.0438,-0.0299,-0.0328,-0.0246,-0.0178,-0.0173,-0.01,-0.007,0.0014,0.0023,0.0187,-0.0103,-0.0104,-0.0105,0,-0.0735,-0.0775,-0.082,-0.0829,-0.0841,-0.0849,-0.0845,-0.0802,-0.0796,-0.0731,-0.0713,-0.0611,-0.0558,-0.0442,-0.0297,-0.0296,-0.0142,-0.0125,-0.0014,-0.0011,0.0048,0.0055,0.0233,-0.0031,-0.0031,-0.0032,-0.0032,0,-0.0789,-0.0825,-0.0848,-0.0875,-0.092,-0.0903,-0.0928,-0.0905,-0.0869,-0.0864,-0.0762,-0.0728,-0.0555,-0.0442,-0.0314,-0.0138,-0.0152,-0.0013,0.002,0.0017,0.002,0.0207,0.0292,-0.0028,-0.0029,-0.003,-0.003,0,-0.0837,-0.0853,-0.091,-0.0938,-0.0948,-0.0979,-0.0993,-0.1005,-0.096,-0.095,-0.0932,-0.0806,-0.0654,-0.0479,-0.0283,-0.016,0.0105,0.006,0.0046,0.0075,0.0331,0.0409,0.0633,0.0724,0.0201,0.0202,0.0204,0,-0.0866,-0.0901,-0.0961,-0.0997,-0.1012,-0.1049,-0.1073,-0.1053,-0.1062,-0.0997,-0.0995,-0.0849,-0.0741,-0.0435,-0.0195,0.0043,0.0177,0.0198,0.0204,0.0358,0.0469,0.052,0.0584,0.0244,0.0246,0.0247,0.0248,0,-0.0917,-0.0937,-0.0985,-0.1059,-0.1102,-0.1153,-0.1181,-0.1203,-0.1172,-0.1148,-0.1082,-0.0989,-0.0687,-0.0408,-0.0088,0.0063,0.033,0.0231,0.0401,0.0533,0.0593,0.0689,0.0167,0.0259,0.0258,0.0257,0.0257,0.0256,-0.0946,-0.0993,-0.1052,-0.1119,-0.1178,-0.1238,-0.1268,-0.1289,-0.1298,-0.1257,-0.1156,-0.1004,-0.0585,-0.0128,0.0055,0.0457,0.0451,0.0578,0.0664,0.0703,0.0792,0.0293,0.0414,0.0413,0.0413,0.0413,0.0413,0,-0.0974,-0.1029,-0.1102,-0.1187,-0.1254,-0.1267,-0.1324,-0.1336,-0.1346,-0.1297,-0.1211,-0.0794,-0.0362,0.0051,0.0618,0.0865,0.0922,0.0995,0.1076,0.1122,0.069,0.0692,0.0867,0.0867,0.0866,0.0866,0.0866,0.0866,-0.0991,-0.1064,-0.1107,-0.1221,-0.1279,-0.1338,-0.1364,-0.1381,-0.135,-0.1227,-0.1035,-0.0892,-0.0246,0.0699,0.1248,0.1305,0.1511,0.1503,0.1627,0.1333,0.13,0.1269,0.1291,0.1589,0.159,0.2014,0.2018,0.2021]}],[{"header":{"parameterUnit":"m.s-1","parameterCategory":2,"la1":30.2991,"la2":30.254,"lo1":-89.0895,"lo2":-89.0444,"dy":0.0017,"dx":0.0017,"nx":28,"ny":28,"refTime":"2026-01-30T03:00:00:Z","depth":"2","parameterNumber":2,"parameterNumberName":"U-component_of_CURRENTS"},"data":[0,0,0,0,0,0,0,0,0,0,0,0,0,0,0,0,0,0,0,0,0,0,0,0,0,0,0,0,0,0,0,0,0,0,0,0,0,0,0,0,0,0,0,0,0,0,0,0,0,0,0,0,0,0,0,0,0,0,-0.2626,-0.2627,0,-0.2658,-0.2658,-0.2658,-0.2633,-0.2632,-0.2631,-0.263,-0.2628,-0.2629,-0.263,0,0,0,0,0,0,0,0,0,0,0,0,0,-0.2564,-0.2565,-0.2626,-0.2627,-0.2627,-0.2658,-0.2658,-0.2658,-0.2633,-0.2632,-0.2631,-0.263,-0.2628,-0.2629,-0.263,0,0,0,0,0,0,0,0,0,0,0,0,0,-0.2591,-0.2565,-0.2626,-0.262,-0.262,-0.2658,-0.2658,-0.2658,-0.2633,-0.2632,-0.263,-0.2629,-0.2628,-0.2629,-0.263,-0.2663,0,0,-0.2634,-0.2634,0,0,0,0,0,0,0,0,-0.2589,-0.2593,-0.262,-0.2621,-0.2621,-0.2642,-0.2635,-0.2659,-0.2633,-0.2626,-0.263,-0.2629,-0.2632,-0.2633,-0.2639,-0.2663,-0.2663,-0.2634,-0.2634,-0.2635,-0.2635,0,0,0,0,0,0,0,-0.2587,-0.2591,-0.2636,-0.2621,-0.2621,-0.2623,-0.2625,-0.264,-0.2633,-0.2626,-0.2625,-0.2633,-0.2632,-0.2638,-0.2639,-0.2663,-0.2634,-0.2635,-0.2635,-0.2636,-0.2718,-0.2719,0,0,0,0,0,0,-0.2589,-0.259,-0.2635,-0.2637,-0.2604,-0.2625,-0.2627,-0.2635,-0.2634,-0.2634,-0.2634,-0.2631,-0.2637,-0.2637,-0.2639,-0.2669,-0.2635,-0.2636,-0.2637,-0.2716,-0.2718,-0.272,0,0,0,0,0,0,-0.2587,-0.2593,-0.2634,-0.2616,-0.2621,-0.2628,-0.2636,-0.2636,-0.2638,-0.2641,-0.2639,-0.2636,-0.2636,-0.2637,-0.2654,-0.2669,-0.2636,-0.2637,-0.2715,-0.2717,-0.2719,-0.2735,0,0,0,0,0,0,-0.2585,-0.2592,-0.2594,-0.2616,-0.2623,-0.2658,-0.2638,-0.2638,-0.2646,-0.2643,-0.2642,-0.2641,-0.2635,-0.2653,-0.2655,-0.267,-0.2638,-0.2713,-0.2716,-0.2718,-0.2733,-0.2738,-0.2742,0,0,0,0,0,-0.2583,-0.2596,-0.2594,-0.2599,-0.2626,-0.2659,-0.2662,-0.266,-0.2648,-0.2655,-0.2655,-0.264,-0.2672,-0.2655,-0.2658,-0.2673,-0.2711,-0.2715,-0.2718,-0.2731,-0.2737,-0.2742,0,0,0,0,0,0,-0.2569,-0.2595,-0.2593,-0.2612,-0.2633,-0.2655,-0.2662,-0.2664,-0.2671,-0.2664,-0.2658,-0.2658,-0.2679,-0.2682,-0.2662,-0.2708,-0.2691,-0.2695,-0.27,-0.2705,-0.271,-0.2707,-0.2639,0,0,0,0,0,-0.2569,-0.2581,-0.2609,-0.2622,-0.2634,-0.2648,-0.2659,-0.2663,-0.2675,-0.2676,-0.2676,-0.2683,-0.2699,-0.2704,-0.2717,-0.2743,-0.2732,-0.2757,-0.2762,-0.2765,-0.2767,-0.2766,-0.277,-0.2731,-0.2731,-0.2731,0,0,-0.2567,-0.2582,-0.2588,-0.2619,-0.2632,-0.2659,-0.265,-0.2672,-0.2691,-0.2677,-0.2694,-0.2698,-0.2711,-0.2735,-0.2746,-0.2736,-0.2772,-0.277,-0.2772,-0.2772,-0.277,-0.2773,-0.2776,-0.2733,-0.2733,-0.2732,0,0,-0.2574,-0.2584,-0.2597,-0.262,-0.2648,-0.2664,-0.2672,-0.2698,-0.2702,-0.2729,-0.2723,-0.2738,-0.276,-0.2771,-0.278,-0.2823,-0.2796,-0.2827,-0.2846,-0.2844,-0.2847,-0.2849,-0.2835,-0.2836,-0.2829,-0.2829,-0.2829,0,-0.257,-0.2589,-0.2607,-0.2632,-0.2648,-0.2668,-0.2692,-0.2713,-0.2738,-0.2744,-0.2737,-0.2771,-0.278,-0.281,-0.2825,-0.2832,-0.2818,-0.2818,-0.2848,-0.2849,-0.2851,-0.2837,-0.2837,-0.283,-0.283,-0.283,-0.283,0,-0.2588,-0.2606,-0.2619,-0.2653,-0.2678,-0.2702,-0.2737,-0.2757,-0.2764,-0.2779,-0.2804,-0.2818,-0.2833,-0.2846,-0.2849,-0.2874,-0.2855,-0.285,-0.2826,-0.2855,-0.2839,-0.2839,-0.2832,-0.2832,-0.2831,-0.2831,0,0,-0.2567,-0.2621,-0.2622,-0.2636,-0.2688,-0.2708,-0.275,-0.2785,-0.2802,-0.2825,-0.284,-0.2878,-0.2873,-0.2884,-0.2888,-0.2895,-0.2899,-0.2878,-0.2877,-0.2851,-0.288,-0.2793,-0.2785,-0.2889,-0.289,-0.289,-0.2861,0,-0.257,-0.2607,-0.2639,-0.2674,-0.2694,-0.2733,-0.2768,-0.2803,-0.2829,-0.2852,-0.287,-0.2889,-0.2892,-0.2894,-0.2904,-0.2905,-0.2901,-0.2907,-0.2868,-0.2867,-0.2774,-0.2783,-0.2542,-0.2489,-0.2861,-0.2861,-0.2861,0,-0.2569,-0.2593,-0.2624,-0.2673,-0.2685,-0.2712,-0.2757,-0.2793,-0.2842,-0.2859,-0.2882,-0.2895,-0.2922,-0.2912,-0.2919,-0.2917,-0.29,-0.2895,-0.2894,-0.2806,-0.278,-0.2523,-0.2475,-0.2861,-0.2861,-0.2861,-0.2861,0,-0.2521,-0.2578,-0.2595,-0.2614,-0.268,-0.2695,-0.2727,-0.2782,-0.2808,-0.2857,-0.2873,-0.2904,-0.2911,-0.291,-0.2908,-0.2909,-0.2899,-0.2898,-0.2802,-0.2795,-0.258,-0.2553,-0.2889,-0.2889,-0.2889,-0.2889,-0.2889,0,-0.2502,-0.2513,-0.257,-0.2579,-0.2597,-0.2657,-0.2681,-0.2723,-0.2779,-0.2799,-0.2862,-0.2874,-0.2909,-0.2911,-0.2906,-0.2848,-0.2894,-0.28,-0.2781,-0.2579,-0.2555,-0.2873,-0.2872,-0.2888,-0.2888,-0.2888,-0.2889,0,-0.2437,-0.2482,-0.2499,-0.2557,-0.2573,-0.2579,-0.2641,-0.2655,-0.2729,-0.2756,-0.277,-0.2844,-0.2848,-0.2869,-0.2866,-0.2826,-0.2796,-0.2761,-0.252,-0.2472,-0.2694,-0.2694,-0.2648,-0.2645,-0.2642,-0.264,-0.2638,0,-0.2404,-0.2406,-0.2456,-0.2455,-0.2475,-0.2501,-0.2514,-0.2604,-0.2623,-0.2724,-0.272,-0.2764,-0.2756,-0.2731,-0.2663,-0.2612,-0.2718,-0.2368,-0.2333,-0.2682,-0.2669,-0.2673,-0.2677,-0.2053,-0.2047,-0.2041,-0.2037,0,-0.2326,-0.2343,-0.2354,-0.2353,-0.2361,-0.238,-0.241,-0.2425,-0.2524,-0.2554,-0.2587,-0.2599,-0.2579,-0.2416,-0.2361,-0.2305,-0.2361,-0.2257,-0.2666,-0.2161,-0.2121,-0.2109,-0.2132,-0.1989,-0.1994,-0.1997,-0.2,-0.2002,-0.2249,-0.2231,-0.224,-0.2227,-0.2239,-0.2232,-0.2198,-0.2247,-0.226,-0.2265,-0.2372,-0.231,-0.2291,-0.2085,-0.1978,-0.1889,-0.207,-0.1968,-0.1984,-0.2006,-0.1952,-0.191,-0.1728,-0.1731,-0.1734,-0.1736,-0.1738,0,-0.2131,-0.2123,-0.2107,-0.2086,-0.2039,-0.2095,-0.2097,-0.2033,-0.1988,-0.2029,-0.2019,-0.1813,-0.1689,-0.1694,-0.1471,-0.1432,-0.1413,-0.1374,-0.1341,-0.1388,-0.1431,-0.1348,-0.0963,-0.0961,-0.0959,-0.0957,0,0,-0.2068,-0.2008,-0.1997,-0.1883,-0.1863,-0.1753,-0.1721,-0.1664,-0.1646,-0.1569,-0.1526,-0.1619,-0.1651,-0.1319,-0.1225,-0.1063,-0.1221,-0.1001,-0.1618,-0.1628,-0.1668,-0.1762,-0.1687,0,0,0,0,0]},{"header":{"parameterUnit":"m.s-1","parameterCategory":2,"la1":30.2991,"la2":30.254,"lo1":-89.0895,"lo2":-89.0444,"dy":0.0017,"dx":0.0017,"nx":28,"ny":28,"refTime":"2026-01-30T03:00:00:Z","depth":"2","parameterNumber":3,"parameterNumberName":"V-component_of_CURRENTS"},"data":[0,0,0,0,0,0,0,0,0,0,0,0,0,0,0,0,0,0,0,0,0,0,0,0,0,0,0,0,0,0,0,0,0,0,0,0,0,0,0,0,0,0,0,0,0,0,0,0,0,0,0,0,0,0,0,0,0,0,-0.0317,-0.0316,0,-0.0241,-0.024,-0.0239,-0.0182,-0.0182,-0.0181,-0.0181,-0.0052,-0.0049,-0.0046,0,0,0,0,0,0,0,0,0,0,0,0,0,-0.0357,-0.0357,-0.0317,-0.0316,-0.0315,-0.0241,-0.024,-0.0239,-0.0182,-0.0182,-0.0181,-0.0181,-0.0053,-0.005,-0.0046,0,0,0,0,0,0,0,0,0,0,0,0,0,-0.0315,-0.0357,-0.0317,-0.0279,-0.0275,-0.0241,-0.024,-0.0238,-0.0182,-0.0182,-0.0181,-0.018,-0.0055,-0.005,-0.0046,-0.0028,0,0,-0.0032,-0.003,0,0,0,0,0,0,0,0,-0.0317,-0.0313,-0.0285,-0.0282,-0.0277,-0.0222,-0.0207,-0.0166,-0.0182,-0.0216,-0.0181,-0.018,-0.0105,-0.0097,-0.0082,-0.0022,-0.0017,-0.0031,-0.0028,-0.0026,-0.0025,0,0,0,0,0,0,0,-0.032,-0.0316,-0.0285,-0.0285,-0.0279,-0.0247,-0.0241,-0.0199,-0.0163,-0.0213,-0.0209,-0.0203,-0.0102,-0.0087,-0.0079,-0.0015,-0.0031,-0.0027,-0.0024,-0.0023,0.0058,0.0057,0,0,0,0,0,0,-0.0336,-0.0319,-0.0288,-0.0283,-0.0298,-0.0247,-0.024,-0.0239,-0.0164,-0.0153,-0.0204,-0.0201,-0.0095,-0.0084,-0.0074,-0.0061,-0.0026,-0.0022,-0.0019,0.0058,0.0057,0.0057,0,0,0,0,0,0,-0.0338,-0.0334,-0.0291,-0.03,-0.0292,-0.0247,-0.0246,-0.0238,-0.0222,-0.0158,-0.0145,-0.0198,-0.0094,-0.008,-0.0042,-0.0055,-0.002,-0.0016,0.0059,0.0058,0.0057,-0.0026,0,0,0,0,0,0,-0.0339,-0.0335,-0.034,-0.0301,-0.0292,-0.0279,-0.0247,-0.0236,-0.022,-0.0216,-0.0149,-0.0136,-0.0093,-0.005,-0.0038,-0.0048,-0.0012,0.006,0.0059,0.0057,-0.0023,-0.003,-0.0036,0,0,0,0,0,-0.0341,-0.0353,-0.0341,-0.0337,-0.0301,-0.028,-0.0272,-0.0237,-0.0221,-0.022,-0.0175,-0.0138,-0.0049,-0.0046,-0.0032,-0.0041,0.006,0.0059,0.0058,-0.002,-0.0028,-0.0036,0,0,0,0,0,0,-0.0369,-0.0347,-0.0333,-0.0337,-0.0314,-0.0271,-0.0267,-0.0244,-0.0208,-0.0203,-0.0141,-0.0125,-0.0098,-0.0059,-0.0058,-0.0023,0.001,0.0011,-0.0054,-0.0061,-0.0068,-0.0072,-0.0008,0,0,0,0,0,-0.038,-0.0384,-0.0354,-0.0356,-0.0349,-0.0309,-0.0296,-0.0275,-0.0239,-0.0223,-0.0176,-0.013,-0.0093,-0.007,-0.003,-0.0007,0.0035,-0.0006,-0.0012,-0.0018,-0.0013,0.0033,0.0031,0.0052,0.0052,0.0052,0,0,-0.0391,-0.038,-0.038,-0.0363,-0.0341,-0.034,-0.03,-0.0289,-0.0284,-0.0214,-0.0192,-0.0149,-0.0093,-0.007,-0.0054,-0.0038,-0.0005,-0.002,-0.0026,-0.0016,0.0032,0.003,0.0028,0.0051,0.0051,0.0051,0,0,-0.042,-0.0406,-0.0422,-0.0411,-0.0391,-0.0366,-0.0367,-0.033,-0.031,-0.0285,-0.0238,-0.0203,-0.0144,-0.0108,-0.0082,-0.0101,-0.0043,-0.0093,-0.0126,-0.0083,-0.0084,-0.0084,-0.0046,-0.0042,-0.0095,-0.0096,-0.0096,0,-0.0435,-0.045,-0.0422,-0.0435,-0.0432,-0.0384,-0.0399,-0.0372,-0.0326,-0.031,-0.029,-0.0207,-0.0163,-0.013,-0.0138,-0.0116,-0.0081,-0.0102,-0.0091,-0.0091,-0.009,-0.005,-0.0045,-0.01,-0.0099,-0.0099,-0.0099,0,-0.0477,-0.0489,-0.0497,-0.0499,-0.0491,-0.0496,-0.0461,-0.0445,-0.0413,-0.0379,-0.0339,-0.0276,-0.0226,-0.0213,-0.0178,-0.0154,-0.0129,-0.0107,-0.0073,-0.0097,-0.0054,-0.0047,-0.0106,-0.0104,-0.0103,-0.0102,0,0,-0.051,-0.0525,-0.0529,-0.0545,-0.0528,-0.0528,-0.0519,-0.0495,-0.0488,-0.0434,-0.0415,-0.0353,-0.0311,-0.0278,-0.0231,-0.0192,-0.0162,-0.0151,-0.0147,-0.0117,-0.0067,-0.0034,-0.0023,-0.0137,-0.0136,-0.0135,-0.0044,0,-0.0551,-0.06,-0.0589,-0.0626,-0.0646,-0.0607,-0.0604,-0.0574,-0.0533,-0.05,-0.0427,-0.0389,-0.0338,-0.0317,-0.027,-0.0185,-0.0146,-0.0189,-0.0044,-0.0039,-0.001,-0.0014,-0.0018,0.0065,-0.0037,-0.0036,-0.0035,0,-0.0599,-0.0625,-0.0675,-0.0696,-0.07,-0.0708,-0.0693,-0.0684,-0.0622,-0.0589,-0.053,-0.0465,-0.0394,-0.0352,-0.0215,-0.0244,-0.0163,-0.0097,-0.0091,-0.0023,0.0007,0.0077,0.0082,-0.0023,-0.0024,-0.0024,-0.0025,0,-0.0647,-0.0685,-0.0729,-0.0738,-0.0748,-0.0756,-0.0752,-0.071,-0.0704,-0.064,-0.0622,-0.0521,-0.0469,-0.0355,-0.0213,-0.0212,-0.006,-0.0042,0.0064,0.0067,0.0114,0.0119,0.0052,0.0052,0.0051,0.0051,0.0051,0,-0.07,-0.0735,-0.0757,-0.0784,-0.0828,-0.081,-0.0834,-0.0812,-0.0776,-0.0771,-0.0671,-0.0637,-0.0466,-0.0355,-0.0229,-0.0058,-0.007,0.0065,0.0096,0.0083,0.0084,0.0051,0.005,0.0054,0.0054,0.0053,0.0052,0,-0.0748,-0.0763,-0.0818,-0.0846,-0.0856,-0.0886,-0.09,-0.0911,-0.0867,-0.0857,-0.0839,-0.0715,-0.0566,-0.0394,-0.02,-0.008,0.0076,0.0136,0.0107,0.0134,0.0177,0.017,0.0267,0.0269,0.0271,0.0272,0.0273,0,-0.0777,-0.0811,-0.087,-0.0906,-0.0921,-0.0958,-0.0981,-0.0961,-0.0968,-0.0904,-0.0901,-0.0758,-0.0651,-0.0351,-0.0114,0.012,0.0113,0.0252,0.0257,0.018,0.0201,0.0191,0.0183,0.0281,0.0283,0.0284,0.0284,0,-0.0828,-0.0848,-0.0895,-0.0969,-0.1011,-0.106,-0.1087,-0.1109,-0.1077,-0.105,-0.0985,-0.0892,-0.0596,-0.0322,-0.001,0.0129,0.0216,0.0279,0.0219,0.0223,0.02,0.0218,0.0208,0.0293,0.0292,0.0291,0.0291,0.029,-0.0858,-0.0905,-0.0962,-0.103,-0.1088,-0.1145,-0.1174,-0.1183,-0.1188,-0.1116,-0.1034,-0.0848,-0.0591,-0.0127,0.0088,0.031,0.0298,0.0372,0.0366,0.036,0.0341,0.0322,0.0434,0.0434,0.0434,0.0434,0.0434,0,-0.0884,-0.0942,-0.1015,-0.1097,-0.1158,-0.1177,-0.1231,-0.1216,-0.1207,-0.1113,-0.1005,-0.069,-0.0385,-0.0119,0.0239,0.0433,0.0421,0.0468,0.0415,0.0406,0.0398,0.0378,0.0483,0.0483,0.0484,0.0484,0,0,-0.0901,-0.0971,-0.1012,-0.1122,-0.1184,-0.1229,-0.1254,-0.1219,-0.1142,-0.103,-0.0882,-0.0678,-0.0365,-0.0101,0.0141,0.0323,0.0313,0.0345,0.029,0.0191,0.018,0.0332,0.0291,0,0,0,0,0]}],[{"header":{"parameterUnit":"m.s-1","parameterCategory":2,"la1":30.2991,"la2":30.254,"lo1":-89.0895,"lo2":-89.0444,"dy":0.0017,"dx":0.0017,"nx":28,"ny":28,"refTime":"2026-01-30T03:00:00:Z","depth":"4","parameterNumber":2,"parameterNumberName":"U-component_of_CURRENTS"},"data":[0,0,0,0,0,0,0,0,0,0,0,0,0,0,0,0,0,0,0,0,0,0,0,0,0,0,0,0,0,0,0,0,0,0,0,0,0,0,0,0,0,0,0,0,0,0,0,0,0,0,0,0,0,0,0,0,0,0,-0.1775,-0.1776,0,-0.1847,-0.1847,-0.1848,-0.189,-0.1891,-0.1891,-0.1891,-0.1974,-0.1976,-0.1978,0,0,0,0,0,0,0,0,0,0,0,0,0,-0.169,-0.1691,-0.1775,-0.1776,-0.1777,-0.1847,-0.1847,-0.1848,-0.189,-0.1891,-0.1891,-0.1891,-0.1974,-0.1976,-0.1978,0,0,0,0,0,0,0,0,0,0,0,0,0,-0.1739,-0.1691,-0.1775,-0.1808,-0.1811,-0.1846,-0.1847,-0.1848,-0.189,-0.1891,-0.1891,-0.1891,-0.1973,-0.1976,-0.1979,-0.1987,0,0,-0.1987,-0.1989,0,0,0,0,0,0,0,0,-0.1736,-0.1742,-0.1802,-0.1805,-0.181,-0.1861,-0.1848,-0.1896,-0.189,-0.1859,-0.1891,-0.1892,-0.1938,-0.1944,-0.1954,-0.1991,-0.1994,-0.1988,-0.1989,-0.1991,-0.1991,0,0,0,0,0,0,0,-0.1733,-0.1739,-0.1802,-0.1803,-0.1808,-0.1824,-0.1831,-0.1857,-0.1894,-0.1861,-0.1865,-0.1875,-0.194,-0.1951,-0.1956,-0.1995,-0.1988,-0.199,-0.1992,-0.1993,-0.2135,-0.2137,0,0,0,0,0,0,-0.1726,-0.1736,-0.18,-0.1804,-0.1775,-0.1825,-0.1833,-0.1843,-0.1894,-0.1902,-0.1875,-0.1877,-0.1946,-0.1953,-0.1959,-0.2048,-0.1991,-0.1993,-0.1995,-0.2133,-0.2135,-0.2138,0,0,0,0,0,0,-0.1724,-0.1731,-0.1797,-0.1773,-0.1783,-0.1826,-0.1837,-0.1844,-0.1886,-0.1904,-0.1912,-0.1912,-0.1947,-0.1955,-0.2014,-0.2049,-0.1995,-0.1997,-0.213,-0.2134,-0.2136,-0.2177,0,0,0,0,0,0,-0.1721,-0.1729,-0.1749,-0.1772,-0.1784,-0.1839,-0.1837,-0.1845,-0.189,-0.1894,-0.1938,-0.1945,-0.1948,-0.201,-0.2017,-0.2052,-0.1999,-0.2128,-0.2132,-0.2135,-0.2174,-0.2182,-0.2188,0,0,0,0,0,-0.1717,-0.1739,-0.175,-0.1759,-0.1805,-0.184,-0.1848,-0.1879,-0.1892,-0.1917,-0.195,-0.1945,-0.2039,-0.2014,-0.2021,-0.2058,-0.2126,-0.2131,-0.2135,-0.217,-0.218,-0.2188,0,0,0,0,0,0,-0.1715,-0.1746,-0.1758,-0.179,-0.1823,-0.1848,-0.1879,-0.1897,-0.1943,-0.1956,-0.197,-0.1979,-0.2042,-0.2049,-0.2021,-0.2113,-0.2083,-0.2089,-0.2107,-0.2116,-0.2123,-0.2114,-0.2002,0,0,0,0,0,-0.1722,-0.1747,-0.1777,-0.1806,-0.1825,-0.1858,-0.1882,-0.1904,-0.1939,-0.1961,-0.1992,-0.2029,-0.2062,-0.2089,-0.2117,-0.2169,-0.2153,-0.22,-0.2207,-0.2214,-0.2214,-0.2218,-0.2225,-0.2153,-0.2153,-0.2153,0,0,-0.1732,-0.1751,-0.1768,-0.1809,-0.1837,-0.1872,-0.1875,-0.1921,-0.1959,-0.1962,-0.2034,-0.2057,-0.2082,-0.2138,-0.2167,-0.2152,-0.2228,-0.2219,-0.2224,-0.2221,-0.2223,-0.223,-0.2236,-0.2156,-0.2155,-0.2155,0,0,-0.175,-0.178,-0.1804,-0.1835,-0.1883,-0.1904,-0.1924,-0.1971,-0.2004,-0.2066,-0.2078,-0.2125,-0.2184,-0.2204,-0.2221,-0.229,-0.2265,-0.2307,-0.2341,-0.2345,-0.235,-0.2354,-0.2341,-0.2343,-0.2313,-0.2313,-0.2313,0,-0.1764,-0.1792,-0.182,-0.1851,-0.1882,-0.1922,-0.1958,-0.1997,-0.206,-0.2087,-0.21,-0.2186,-0.2213,-0.2264,-0.2294,-0.2306,-0.2295,-0.23,-0.2352,-0.2356,-0.2359,-0.2344,-0.2347,-0.2316,-0.2316,-0.2315,-0.2315,0,-0.1787,-0.1827,-0.1848,-0.1898,-0.1936,-0.1977,-0.2027,-0.2077,-0.2122,-0.2153,-0.2225,-0.226,-0.2306,-0.2329,-0.2337,-0.2384,-0.2364,-0.2355,-0.232,-0.2368,-0.235,-0.2352,-0.2319,-0.2319,-0.2318,-0.2317,0,0,-0.177,-0.1849,-0.1859,-0.1891,-0.1965,-0.1994,-0.2066,-0.2127,-0.2169,-0.2236,-0.2283,-0.2355,-0.2369,-0.2389,-0.2405,-0.2419,-0.2443,-0.2406,-0.2405,-0.2377,-0.244,-0.2267,-0.2251,-0.244,-0.2441,-0.2441,-0.2414,0,-0.1782,-0.1841,-0.1883,-0.1951,-0.1985,-0.2047,-0.2104,-0.2168,-0.2225,-0.2283,-0.2327,-0.2381,-0.2393,-0.2419,-0.2439,-0.2445,-0.2451,-0.2451,-0.2411,-0.2409,-0.2237,-0.2249,-0.2443,-0.2415,-0.2416,-0.2416,-0.2416,0,-0.178,-0.1822,-0.1887,-0.197,-0.1992,-0.2045,-0.2133,-0.219,-0.2274,-0.2317,-0.2374,-0.2405,-0.2457,-0.2452,-0.2477,-0.2476,-0.2464,-0.2459,-0.2458,-0.228,-0.2238,-0.2361,-0.2419,-0.2418,-0.2418,-0.2418,-0.2418,0,-0.1728,-0.182,-0.1872,-0.1903,-0.2005,-0.2054,-0.2112,-0.2202,-0.2247,-0.2338,-0.2372,-0.2432,-0.2462,-0.247,-0.2475,-0.248,-0.2474,-0.2476,-0.2304,-0.2292,-0.2438,-0.2433,-0.2476,-0.2476,-0.2476,-0.2476,-0.2476,0,-0.1699,-0.1744,-0.1858,-0.1884,-0.1948,-0.2032,-0.2102,-0.2169,-0.2256,-0.229,-0.2383,-0.2399,-0.2469,-0.2476,-0.2473,-0.2379,-0.2471,-0.2298,-0.2268,-0.2457,-0.2455,-0.2438,-0.2434,-0.2475,-0.2475,-0.2475,-0.2475,0,-0.1623,-0.1703,-0.1766,-0.1884,-0.1924,-0.1968,-0.2085,-0.212,-0.2223,-0.2268,-0.2296,-0.2382,-0.2379,-0.2415,-0.2419,-0.2348,-0.2298,-0.2241,-0.2431,-0.2415,-0.2115,-0.2114,-0.204,-0.2034,-0.2028,-0.2024,-0.202,0,-0.1584,-0.1612,-0.1744,-0.1776,-0.1835,-0.1918,-0.1961,-0.2085,-0.2112,-0.2226,-0.2218,-0.2269,-0.2302,-0.2162,-0.2225,-0.2179,-0.2158,-0.2115,-0.2123,-0.2089,-0.2069,-0.2077,-0.2083,-0.2011,-0.201,-0.2008,-0.2007,0,-0.1504,-0.1568,-0.1618,-0.1684,-0.1745,-0.1799,-0.1871,-0.1877,-0.1994,-0.2109,-0.2073,-0.2062,-0.2046,-0.2038,-0.2008,-0.1984,-0.2136,-0.2058,-0.2069,-0.2076,-0.2053,-0.204,-0.2053,-0.1988,-0.1991,-0.1992,-0.1993,0,-0.1441,-0.1453,-0.1525,-0.1565,-0.1638,-0.1648,-0.1708,-0.1725,-0.177,-0.1894,-0.1872,-0.1932,-0.2014,-0.1934,-0.1913,-0.1865,-0.1842,-0.1783,-0.1809,-0.1831,-0.1774,-0.1714,-0.1505,0,0,0,0,0,-0.1367,-0.1362,-0.1393,-0.1431,-0.1496,-0.1534,-0.1625,-0.1686,-0.18,-0.1718,-0.1789,-0.1765,-0.1723,-0.1759,-0.1665,-0.1823,-0.1856,-0.1705,-0.1805,-0.1883,-0.1905,-0.1857,0,0,0,0,0,0,-0.1315,-0.1344,-0.1347,-0.1308,-0.1303,-0.1355,-0.1408,-0.1489,-0.145,-0.1572,-0.1556,-0.1645,-0.1633,-0.1745,-0.1625,-0.1634,-0.1656,-0.175,-0.1744,-0.1871,-0.189,-0.1908,-0.1866,0,0,0,0,0]},{"header":{"parameterUnit":"m.s-1","parameterCategory":2,"la1":30.2991,"la2":30.254,"lo1":-89.0895,"lo2":-89.0444,"dy":0.0017,"dx":0.0017,"nx":28,"ny":28,"refTime":"2026-01-30T03:00:00:Z","depth":"4","parameterNumber":3,"parameterNumberName":"V-component_of_CURRENTS"},"data":[0,0,0,0,0,0,0,0,0,0,0,0,0,0,0,0,0,0,0,0,0,0,0,0,0,0,0,0,0,0,0,0,0,0,0,0,0,0,0,0,0,0,0,0,0,0,0,0,0,0,0,0,0,0,0,0,0,0,-0.0135,-0.0135,0,-0.0087,-0.0087,-0.0086,-0.0046,-0.0046,-0.0046,-0.0046,0.0051,0.0053,0.0056,0,0,0,0,0,0,0,0,0,0,0,0,0,-0.0151,-0.0151,-0.0135,-0.0134,-0.0134,-0.0087,-0.0087,-0.0086,-0.0046,-0.0046,-0.0046,-0.0045,0.005,0.0053,0.0056,0,0,0,0,0,0,0,0,0,0,0,0,0,-0.0127,-0.0151,-0.0135,-0.011,-0.0107,-0.0088,-0.0087,-0.0086,-0.0047,-0.0046,-0.0046,-0.0045,0.005,0.0053,0.0056,0.0068,0,0,0.0067,0.0068,0,0,0,0,0,0,0,0,-0.0128,-0.0126,-0.0114,-0.0111,-0.0108,-0.0073,-0.0057,-0.0032,-0.0047,-0.0068,-0.0046,-0.0045,0.0013,0.0019,0.0028,0.0073,0.0077,0.0067,0.0069,0.0071,0.0072,0,0,0,0,0,0,0,-0.013,-0.0127,-0.0115,-0.0113,-0.011,-0.0087,-0.0083,-0.0052,-0.0029,-0.0066,-0.0064,-0.006,0.0015,0.0025,0.0031,0.0078,0.0067,0.007,0.0072,0.0073,0.0128,0.0127,0,0,0,0,0,0,-0.0141,-0.0129,-0.0116,-0.0114,-0.0119,-0.0087,-0.0083,-0.0084,-0.003,-0.0022,-0.0061,-0.0059,0.0019,0.0027,0.0035,0.004,0.0071,0.0074,0.0076,0.0129,0.0128,0.0127,0,0,0,0,0,0,-0.0142,-0.0141,-0.0118,-0.0121,-0.0117,-0.0088,-0.0089,-0.0083,-0.0075,-0.0027,-0.0018,-0.0059,0.002,0.003,0.0056,0.0045,0.0075,0.0078,0.0129,0.0128,0.0127,0.0059,0,0,0,0,0,0,-0.0142,-0.0141,-0.0147,-0.0122,-0.0117,-0.0115,-0.009,-0.0083,-0.0074,-0.0071,-0.0022,-0.0013,0.0021,0.005,0.0059,0.005,0.0081,0.013,0.0129,0.0128,0.0062,0.0056,0.005,0,0,0,0,0,-0.0143,-0.0155,-0.0148,-0.0146,-0.0126,-0.0115,-0.0111,-0.0087,-0.0075,-0.0077,-0.0044,-0.0014,0.0049,0.0053,0.0063,0.0055,0.0131,0.0129,0.0128,0.0065,0.0057,0.0051,0,0,0,0,0,0,-0.0163,-0.0151,-0.0143,-0.015,-0.0138,-0.0109,-0.0109,-0.0093,-0.0069,-0.0066,-0.0018,-0.0007,0.0011,0.0041,0.0044,0.0066,0.0093,0.0094,0.0042,0.0035,0.0029,0.0026,0.0084,0,0,0,0,0,-0.0172,-0.0179,-0.0161,-0.0167,-0.0163,-0.0138,-0.0131,-0.0117,-0.0093,-0.0082,-0.0048,-0.0013,0.0013,0.003,0.0059,0.0074,0.0111,0.0074,0.0068,0.0063,0.0067,0.011,0.0109,0.0123,0.0123,0.0123,0,0,-0.018,-0.0176,-0.0179,-0.0172,-0.0159,-0.0163,-0.0132,-0.0129,-0.0129,-0.0074,-0.0063,-0.0031,0.0012,0.0026,0.0037,0.0051,0.0076,0.0062,0.0057,0.0064,0.0109,0.0107,0.0106,0.0122,0.0122,0.0122,0,0,-0.0204,-0.0199,-0.0213,-0.0209,-0.02,-0.0184,-0.0187,-0.0165,-0.0152,-0.0139,-0.0102,-0.0077,-0.0036,-0.0008,0.0012,-0.0007,0.0044,-0.0002,-0.003,0.0011,0.001,0.001,0.0045,0.0049,-0.0003,-0.0004,-0.0004,0,-0.0215,-0.0231,-0.0215,-0.0229,-0.0231,-0.0199,-0.0214,-0.0198,-0.017,-0.016,-0.0146,-0.0085,-0.0053,-0.0027,-0.0037,-0.002,0.0012,-0.0009,0.0004,0.0005,0.0006,0.0042,0.0047,-0.0007,-0.0007,-0.0006,-0.0006,0,-0.0248,-0.0263,-0.0272,-0.028,-0.0279,-0.0288,-0.0268,-0.0261,-0.0242,-0.0219,-0.0192,-0.0145,-0.0108,-0.0099,-0.0072,-0.0052,-0.003,-0.001,0.002,0.0,0.004,0.0046,-0.0012,-0.0011,-0.001,-0.0009,0,0,-0.0268,-0.0291,-0.0296,-0.0313,-0.0309,-0.0314,-0.0316,-0.0304,-0.0303,-0.0267,-0.0256,-0.0212,-0.0179,-0.0154,-0.0116,-0.0081,-0.0053,-0.0047,-0.0043,-0.0013,0.0037,0.0034,0.0041,-0.0029,-0.0028,-0.0027,0.0057,0,-0.0299,-0.0342,-0.0341,-0.0378,-0.0397,-0.0378,-0.0383,-0.0368,-0.0343,-0.0323,-0.0267,-0.0241,-0.0202,-0.0187,-0.0145,-0.0072,-0.0037,-0.0077,0.0054,0.0058,0.0057,0.0048,-0.0024,0.0063,0.0064,0.0065,0.0066,0,-0.0331,-0.0357,-0.0403,-0.0432,-0.0439,-0.0454,-0.0456,-0.0457,-0.0417,-0.0396,-0.0352,-0.0302,-0.0244,-0.0211,-0.0091,-0.0117,-0.0048,0.001,0.0015,0.0043,0.0067,0.0091,0.0079,0.0078,0.0077,0.0076,0.0075,0,-0.0356,-0.0399,-0.044,-0.0452,-0.0476,-0.0492,-0.05,-0.0479,-0.0481,-0.0439,-0.0428,-0.0345,-0.0304,-0.0204,-0.0087,-0.0085,0.0048,0.0066,0.013,0.013,0.014,0.0139,0.0148,0.0148,0.0148,0.0148,0.0148,0,-0.0385,-0.042,-0.046,-0.0484,-0.0532,-0.0532,-0.0565,-0.0557,-0.0541,-0.0541,-0.0468,-0.0441,-0.0299,-0.0205,-0.0098,0.0035,0.0043,0.0127,0.0153,0.0107,0.0101,0.0144,0.0142,0.0151,0.015,0.015,0.0149,0,-0.0403,-0.043,-0.0484,-0.0528,-0.0548,-0.0581,-0.0621,-0.0636,-0.0616,-0.0613,-0.0602,-0.0505,-0.038,-0.0239,-0.0071,0.0014,0.0142,0.0185,0.0119,0.014,0.0202,0.0195,0.0269,0.027,0.027,0.0271,0.0271,0,-0.0414,-0.0444,-0.0521,-0.0561,-0.0587,-0.0637,-0.0669,-0.0674,-0.0685,-0.0648,-0.0642,-0.0533,-0.0451,-0.0213,-0.007,0.0135,0.0162,0.0225,0.022,0.0197,0.0215,0.0208,0.0201,0.0272,0.0272,0.0272,0.0272,0,-0.0431,-0.0463,-0.0508,-0.0591,-0.0646,-0.0702,-0.0744,-0.0758,-0.0751,-0.0739,-0.0659,-0.0534,-0.0393,-0.0208,-0.0055,0.0091,0.0184,0.0231,0.0231,0.0228,0.0201,0.0217,0.021,0.0274,0.0274,0.0274,0.0274,0,-0.0441,-0.048,-0.0543,-0.0613,-0.0688,-0.0742,-0.0764,-0.0765,-0.0768,-0.0721,-0.0694,-0.0539,-0.0447,-0.0232,-0.009,0.0052,0.0092,0.0139,0.0145,0.0145,0.0081,0.0027,0.007,0,0,0,0,0,-0.0443,-0.0489,-0.0558,-0.0638,-0.0711,-0.0748,-0.0801,-0.0811,-0.0807,-0.0752,-0.0719,-0.0584,-0.0359,-0.0262,-0.0117,-0.0086,0.0106,0.0086,0.016,0.0284,0.0282,0.0228,0,0,0,0,0,0,-0.045,-0.0513,-0.0552,-0.0638,-0.0692,-0.0763,-0.0797,-0.0797,-0.0757,-0.0732,-0.061,-0.0547,-0.0328,-0.0434,-0.0111,-0.007,-0.0004,0.019,0.0193,0.0285,0.0283,0.0282,0.0225,0,0,0,0,0]}]]